Weather History for Lone Rock, WI

Change the Weather History Date:

Wednesday, December 5, 2012

  Actual Average Record
Temperature  
Mean Temperature 28 °F -  
Max Temperature 37 °F 36 °F 64 °F (1998)
Min Temperature 18 °F 22 °F -15 °F (2005)
Degree Days  
Heating Degree Days 38    
Moisture  
Dew Point 16 °F    
Average Humidity 59    
Maximum Humidity 74    
Minimum Humidity 41    
Precipitation  
Precipitation 0.00 in - - ()
Sea Level Pressure  
Sea Level Pressure 30.34 in    
Wind  
Wind Speed 5 mph (East)    
Max Wind Speed 12 mph    
Max Gust Speed -    
Visibility 10 miles    
Events      
Averages and records for this station are not official NWS values.
T = Trace of Precipitation, MM = Missing Value Source: NWS Daily Summary

Daily Weather History Graph

Daily Weather History Graph

Search for Another Location

Airport:

Trip Planner

Search our weather history database for the weather conditions in past years. The results will help you decide how hot, cold, wet, or windy it might be!

Date:

Astronomy

Dec. 05, 2012 Rise Set
Actual Time 7:17 AM CST 4:25 PM CST
Civil Twilight 6:45 AM CST 4:57 PM CST
Nautical Twilight 6:09 AM CST 5:33 PM CST
Astronomical Twilight 5:35 AM CST 6:07 PM CST
Moon 11:23 PM CST (12/5) 11:33 AM CST (12/5)
Length of Visible Light 10h 12m
Length of Day
9h 07m
Waning Gibbous, 59% of the Moon is Illuminated
Dec 5
Waning Gibbous
Dec 6
Last Quarter
Dec 13
New
Dec 19
First Quarter
Dec 28
Full

Hourly Weather History & Observations

Time (CST) Temp. Windchill Dew Point Humidity Pressure Visibility Wind Dir Wind Speed Gust Speed Precip Events Conditions
12:56 AM 27.0 °F 21.6 °F 12.0 °F 53% 30.39 in 10.0 mi North 4.6 mph - N/A   Clear
1:56 AM 26.1 °F 20.5 °F 12.0 °F 55% 30.41 in 10.0 mi North 4.6 mph - N/A   Clear
2:56 AM 25.0 °F 20.7 °F 12.0 °F 58% 30.41 in 10.0 mi East 3.5 mph - N/A   Clear
3:56 AM 24.1 °F - 12.0 °F 60% 30.42 in 10.0 mi Calm Calm - N/A   Clear
4:56 AM 19.0 °F - 10.9 °F 71% 30.43 in 10.0 mi Calm Calm - N/A   Clear
5:56 AM 21.0 °F - 12.0 °F 68% 30.44 in 10.0 mi Calm Calm - N/A   Clear
6:56 AM 18.0 °F - 10.9 °F 74% 30.45 in 10.0 mi Calm Calm - N/A   Clear
8:56 AM 25.0 °F 19.3 °F 12.9 °F 60% 30.45 in 10.0 mi East 4.6 mph - N/A   Clear
9:56 AM 27.0 °F 19.5 °F 14.0 °F 58% 30.46 in 10.0 mi SE 6.9 mph - N/A   Clear
10:56 AM 30.0 °F 20.5 °F - N/A% 30.44 in - East 11.5 mph - 0.00 in   Clear
11:56 AM 33.1 °F - 15.1 °F 48% 30.41 in 10.0 mi North - - N/A   Clear
12:56 PM 35.1 °F 27.4 °F 15.1 °F 44% 30.37 in 10.0 mi East 10.4 mph - N/A   Clear
1:56 PM 37.0 °F 29.8 °F 15.1 °F 41% 30.34 in 10.0 mi ESE 10.4 mph - N/A   Clear
2:56 PM 37.0 °F 31.0 °F 15.1 °F 41% 30.32 in 10.0 mi ESE 8.1 mph - N/A   Clear
3:56 PM 35.1 °F 29.3 °F 16.0 °F 46% 30.31 in 10.0 mi SE 6.9 mph - N/A   Clear
4:56 PM 32.0 °F 25.6 °F 17.1 °F 54% 30.30 in 10.0 mi ESE 6.9 mph - N/A   Clear
5:56 PM 30.9 °F 23.5 °F 18.0 °F 59% 30.28 in 10.0 mi East 8.1 mph - N/A   Clear
6:56 PM 30.9 °F 24.3 °F 19.9 °F 64% 30.25 in 10.0 mi East 6.9 mph - N/A   Clear
7:56 PM 28.9 °F 21.1 °F 19.9 °F 69% 30.24 in 10.0 mi East 8.1 mph - N/A   Clear
8:56 PM 32.0 °F 26.4 °F 21.9 °F 66% 30.21 in 10.0 mi East 5.8 mph - N/A   Clear
9:56 PM 34.0 °F 28.0 °F 24.1 °F 67% 30.19 in 10.0 mi East 6.9 mph - N/A   Clear
10:56 PM 34.0 °F 28.0 °F 24.1 °F 67% 30.17 in 10.0 mi East 6.9 mph - N/A   Clear
11:56 PM 36.0 °F 30.3 °F 26.1 °F 67% 30.15 in 10.0 mi SE 6.9 mph - N/A   Mostly Cloudy